Pratt, KS

1:50 AM CDT on March 30, 2017 (GMT -0500)
Pratt Industrial

Weather History for KPTT - September, 2013

Change the Weather History Date:

Thursday, September 26, 2013

  Actual Average (KP28) Record (KP28)
Temperature  
Mean Temperature 78 °F -  
Max Temperature 93 °F 77 °F 101 °F (1984)
Min Temperature 64 °F 52 °F 30 °F (1912)
Cooling Degree Days 14    
Growing Degree Days 28 (Base 50)    
Moisture  
Dew Point 50 °F    
Average Humidity 40    
Maximum Humidity 59    
Minimum Humidity 21    
Precipitation  
Precipitation 0.00 in - - ()
Sea Level Pressure  
Sea Level Pressure 29.75 in    
Wind  
Wind Speed 18 mph (SSE)    
Max Wind Speed 29 mph    
Max Gust Speed 37 mph    
Visibility 10 miles    
Events      
Averages and records for this station are not official NWS values.
T = Trace of Precipitation, MM = Missing Value Source: NWS Daily Summary

Daily Weather History Graph

Daily Weather History Graph

Search for Another Location

Airport or City:

Trip Planner

Search our weather history database for the weather conditions in past years. The results will help you decide how hot, cold, wet, or windy it might be!

Date:

Astronomy

Sep. 26, 2013 Rise Set
Actual Time 7:26 AM CDT 7:25 PM CDT
Civil Twilight 7:00 AM CDT 7:51 PM CDT
Nautical Twilight 6:29 AM CDT 8:21 PM CDT
Astronomical Twilight 5:59 AM CDT 8:52 PM CDT
Moon No Moon Rise 2:14 PM CDT (9/26)
Length of Visible Light 12h 51m
Length of Day
11h 58m
Waning Gibbous, 54% of the Moon is Illuminated
Sep 26
Waning Gibbous
Sep 26
Last Quarter
Oct 4
New
Oct 11
First Quarter
Oct 18
Full

Hourly Weather History & Observations

Time (CDT) Temp. Dew Point Humidity Pressure Visibility Wind Dir Wind Speed Gust Speed Precip Events Conditions
12:15 AM 69.8 °F 50.0 °F 49% 29.75 in 10.0 mi SSE 12.7 mph 17.3 mph N/A   Clear
12:35 AM 69.8 °F 50.0 °F 49% 29.75 in 10.0 mi SSE 13.8 mph - N/A   Clear
12:55 AM 69.8 °F 50.0 °F 49% 29.75 in 10.0 mi SSE 13.8 mph - N/A   Clear
1:15 AM 69.8 °F 50.0 °F 49% 29.74 in 10.0 mi SSE 16.1 mph 23.0 mph N/A   Clear
1:35 AM 68.0 °F 50.0 °F 52% 29.74 in 10.0 mi SSE 17.3 mph 24.2 mph N/A   Clear
1:55 AM 68.0 °F 50.0 °F 52% 29.74 in 10.0 mi SSE 16.1 mph 21.9 mph N/A   Clear
2:15 AM 68.0 °F 50.0 °F 52% 29.74 in 10.0 mi SSE 17.3 mph - N/A   Clear
2:35 AM 68.0 °F 50.0 °F 52% 29.74 in 10.0 mi SSE 13.8 mph 20.7 mph N/A   Clear
2:55 AM 68.0 °F 50.0 °F 52% 29.74 in 10.0 mi SSE 18.4 mph 23.0 mph N/A   Clear
3:15 AM 68.0 °F 50.0 °F 52% 29.74 in 10.0 mi SSE 17.3 mph 26.5 mph N/A   Clear
3:35 AM 68.0 °F 50.0 °F 52% 29.74 in 10.0 mi SSE 16.1 mph 23.0 mph N/A   Clear
3:55 AM 68.0 °F 50.0 °F 52% 29.74 in 10.0 mi SSE 18.4 mph 24.2 mph N/A   Clear
4:15 AM 68.0 °F 50.0 °F 52% 29.74 in 10.0 mi SSE 15.0 mph 21.9 mph N/A   Clear
4:35 AM 66.2 °F 48.2 °F 52% 29.74 in 10.0 mi SSE 16.1 mph 21.9 mph N/A   Clear
4:55 AM 66.2 °F 48.2 °F 52% 29.74 in 10.0 mi SSE 13.8 mph 19.6 mph N/A   Clear
5:15 AM 66.2 °F 48.2 °F 52% 29.74 in 10.0 mi SSE 11.5 mph - N/A   Clear
5:35 AM 64.4 °F 50.0 °F 59% 29.74 in 10.0 mi SSE 12.7 mph - N/A   Clear
5:55 AM 64.4 °F 50.0 °F 59% 29.74 in 10.0 mi SSE 15.0 mph - N/A   Clear
6:15 AM 64.4 °F 48.2 °F 56% 29.75 in 10.0 mi SSE 13.8 mph 18.4 mph N/A   Clear
6:35 AM 64.4 °F 48.2 °F 56% 29.75 in 10.0 mi SSE 11.5 mph - N/A   Clear
6:55 AM 64.4 °F 48.2 °F 56% 29.75 in 10.0 mi SSE 13.8 mph - N/A   Clear
7:15 AM 64.4 °F 48.2 °F 56% 29.76 in 10.0 mi SSE 13.8 mph 18.4 mph N/A   Clear
7:35 AM 64.4 °F 48.2 °F 56% 29.76 in 10.0 mi SSE 13.8 mph 21.9 mph N/A   Clear
7:55 AM 64.4 °F 48.2 °F 56% 29.76 in 10.0 mi SSE 13.8 mph - N/A   Clear
8:15 AM 64.4 °F 48.2 °F 56% 29.76 in 10.0 mi SSE 15.0 mph 20.7 mph N/A   Clear
8:35 AM 64.4 °F 50.0 °F 59% 29.77 in 10.0 mi SSE 16.1 mph 20.7 mph N/A   Clear
8:55 AM 68.0 °F 50.0 °F 52% 29.77 in 10.0 mi SSE 18.4 mph 23.0 mph N/A   Clear
9:15 AM 68.0 °F 50.0 °F 52% 29.78 in 10.0 mi SSE 17.3 mph - N/A   Clear
9:35 AM 69.8 °F 50.0 °F 49% 29.78 in 10.0 mi SSE 18.4 mph 21.9 mph N/A   Clear
9:55 AM 71.6 °F 50.0 °F 46% 29.78 in 10.0 mi South 17.3 mph 20.7 mph N/A   Clear
10:15 AM 73.4 °F 51.8 °F 47% 29.79 in 10.0 mi South 17.3 mph - N/A   Clear
10:35 AM 75.2 °F 51.8 °F 44% 29.78 in 10.0 mi South 19.6 mph 26.5 mph N/A   Clear
10:55 AM 77.0 °F 51.8 °F 41% 29.78 in 10.0 mi South 16.1 mph 23.0 mph N/A   Clear
11:15 AM 78.8 °F 51.8 °F 39% 29.78 in 10.0 mi South 16.1 mph 24.2 mph N/A   Clear
11:35 AM 80.6 °F 51.8 °F 37% 29.77 in 10.0 mi South 20.7 mph 25.3 mph N/A   Clear
11:55 AM 82.4 °F 51.8 °F 35% 29.77 in 10.0 mi South 17.3 mph - N/A   Clear
12:15 PM 84.2 °F 51.8 °F 33% 29.76 in 10.0 mi South 21.9 mph 27.6 mph N/A   Clear
12:35 PM 86.0 °F 51.8 °F 31% 29.76 in 10.0 mi South 21.9 mph 27.6 mph N/A   Clear
12:55 PM 86.0 °F 51.8 °F 31% 29.75 in 10.0 mi South 27.6 mph 34.5 mph N/A   Clear
1:15 PM 86.0 °F 51.8 °F 31% 29.75 in 10.0 mi South 24.2 mph 32.2 mph N/A   Clear
1:35 PM 87.8 °F 51.8 °F 29% 29.74 in 10.0 mi South 25.3 mph 33.4 mph N/A   Clear
1:55 PM 91.4 °F 50.0 °F 24% 29.74 in 10.0 mi South 25.3 mph 33.4 mph N/A   Clear
2:15 PM 91.4 °F 50.0 °F 24% 29.73 in 10.0 mi South 26.5 mph 34.5 mph N/A   Clear
2:35 PM 91.4 °F 50.0 °F 24% 29.73 in 10.0 mi South 23.0 mph 34.5 mph N/A   Clear
2:55 PM 91.4 °F 50.0 °F 24% 29.72 in 10.0 mi South 28.8 mph 36.8 mph N/A   Clear
3:15 PM 91.4 °F 48.2 °F 23% 29.72 in 10.0 mi South 24.2 mph 34.5 mph N/A   Clear
3:35 PM 93.2 °F 48.2 °F 21% 29.72 in 10.0 mi South 25.3 mph 34.5 mph N/A   Clear
3:55 PM 93.2 °F 48.2 °F 21% 29.72 in 10.0 mi South 27.6 mph 36.8 mph N/A   Clear
4:15 PM 91.4 °F 48.2 °F 23% 29.72 in 10.0 mi South 24.2 mph 35.7 mph N/A   Clear
4:35 PM 91.4 °F 48.2 °F 23% 29.72 in 10.0 mi South 27.6 mph 34.5 mph N/A   Clear
4:55 PM 91.4 °F 48.2 °F 23% 29.72 in 10.0 mi South 28.8 mph 34.5 mph N/A   Clear
5:15 PM 91.4 °F 48.2 °F 23% 29.72 in 10.0 mi South 26.5 mph 35.7 mph N/A   Clear
5:35 PM 91.4 °F 48.2 °F 23% 29.72 in 10.0 mi South 28.8 mph 36.8 mph N/A   Clear
5:55 PM 91.4 °F 48.2 °F 23% 29.72 in 10.0 mi South 27.6 mph 34.5 mph N/A   Clear
6:15 PM 89.6 °F 50.0 °F 26% 29.73 in 10.0 mi South 24.2 mph 34.5 mph N/A   Clear
6:35 PM 89.6 °F 50.0 °F 26% 29.73 in 10.0 mi South 20.7 mph 34.5 mph N/A   Clear
6:55 PM 87.8 °F 50.0 °F 27% 29.73 in 10.0 mi South 26.5 mph 35.7 mph N/A   Clear
7:15 PM 87.8 °F 50.0 °F 27% 29.73 in 10.0 mi South 21.9 mph 28.8 mph N/A   Clear
7:35 PM 86.0 °F 50.0 °F 29% 29.74 in 10.0 mi South 19.6 mph 25.3 mph N/A   Clear
7:55 PM 86.0 °F 50.0 °F 29% 29.74 in 10.0 mi South 20.7 mph 26.5 mph N/A   Clear
8:15 PM 84.2 °F 50.0 °F 30% 29.75 in 10.0 mi South 20.7 mph 29.9 mph N/A   Clear
8:35 PM 82.4 °F 50.0 °F 32% 29.76 in 10.0 mi SSE 15.0 mph 25.3 mph N/A   Clear
8:55 PM 82.4 °F 50.0 °F 32% 29.77 in 10.0 mi South 19.6 mph 24.2 mph N/A   Clear
9:15 PM 80.6 °F 50.0 °F 34% 29.78 in 10.0 mi SSE 17.3 mph 24.2 mph N/A   Clear
9:35 PM 80.6 °F 51.8 °F 37% 29.78 in 10.0 mi South 18.4 mph 25.3 mph N/A   Clear
9:55 PM 80.6 °F 51.8 °F 37% 29.79 in 10.0 mi South 16.1 mph 23.0 mph N/A   Clear
10:15 PM 78.8 °F 51.8 °F 39% 29.79 in 10.0 mi SSE 19.6 mph 25.3 mph N/A   Clear
10:35 PM 78.8 °F 51.8 °F 39% 29.79 in 10.0 mi SSE 18.4 mph 25.3 mph N/A   Clear
10:55 PM 78.8 °F 53.6 °F 42% 29.79 in 10.0 mi South 20.7 mph 27.6 mph N/A   Clear
11:15 PM 78.8 °F 51.8 °F 39% 29.80 in 10.0 mi South 20.7 mph 26.5 mph N/A   Clear
11:35 PM 77.0 °F 51.8 °F 41% 29.80 in 10.0 mi South 20.7 mph 29.9 mph N/A   Clear
11:55 PM 77.0 °F 51.8 °F 41% 29.80 in 10.0 mi South 20.7 mph 28.8 mph N/A   Clear